Weather History for Lawrence, MA

Change the Weather History Date:

Tuesday, March 5, 2013

  Actual Average Record
Temperature  
Mean Temperature 38 °F -  
Max Temperature 45 °F 40 °F 68 °F (1974)
Min Temperature 32 °F 23 °F 0 °F (1948)
Degree Days  
Heating Degree Days 26    
Moisture  
Dew Point 27 °F    
Average Humidity 66    
Maximum Humidity 87    
Minimum Humidity 48    
Precipitation  
Precipitation 0.00 in - - ()
Sea Level Pressure  
Sea Level Pressure 29.98 in    
Wind  
Wind Speed 7 mph (North)    
Max Wind Speed 10 mph    
Max Gust Speed 21 mph    
Visibility 10 miles    
Events      
Averages and records for this station are not official NWS values.
T = Trace of Precipitation, MM = Missing Value Source: NWS Daily Summary

Daily Weather History Graph

Daily Weather History Graph

Search for Another Location

Airport:

Trip Planner

Search our weather history database for the weather conditions in past years. The results will help you decide how hot, cold, wet, or windy it might be!

Date:

Astronomy

Mar. 05, 2013 Rise Set
Actual Time 6:13 AM EST 5:39 PM EST
Civil Twilight 5:45 AM EST 6:07 PM EST
Nautical Twilight 5:12 AM EST 6:40 PM EST
Astronomical Twilight 4:39 AM EST 7:13 PM EST
Moon 1:28 AM EST (3/5) 11:09 AM EST (3/5)
Length of Visible Light 12h 22m
Length of Day
11h 26m
Last Quarter, 41% of the Moon is Illuminated
Mar 5
Last Quarter
Mar 11
New
Mar 19
First Quarter
Mar 27
Full
Apr 3
Last Quarter

Hourly Weather History & Observations

Time (EST) Temp. Windchill Dew Point Humidity Pressure Visibility Wind Dir Wind Speed Gust Speed Precip Events Conditions
12:54 AM 32.0 °F 24.8 °F 21.0 °F 64% 29.77 in 10.0 mi NW 8.1 mph 18.4 mph N/A   Overcast
2:54 AM 32.0 °F 24.8 °F 19.9 °F 61% 29.81 in 10.0 mi NW 8.1 mph - N/A   Overcast
3:54 AM 32.0 °F 24.8 °F 19.9 °F 61% 29.83 in 10.0 mi NNW 8.1 mph 16.1 mph N/A   Overcast
4:54 AM 32.0 °F 23.6 °F 21.0 °F 64% 29.86 in 10.0 mi NNW 10.4 mph 16.1 mph N/A   Overcast
5:54 AM 32.0 °F 24.8 °F 21.0 °F 64% 29.88 in 10.0 mi NNW 8.1 mph - N/A   Overcast
6:54 AM 32.0 °F 25.6 °F 21.0 °F 64% 29.91 in 10.0 mi NW 6.9 mph - N/A   Mostly Cloudy
7:54 AM 33.8 °F 29.6 °F 21.2 °F 60% 29.93 in 10.0 mi NW 4.6 mph - N/A   Overcast
8:54 AM 37.0 °F 31.6 °F 23.0 °F 57% 29.95 in 10.0 mi Variable 6.9 mph - N/A   Overcast
9:01 AM 37.4 °F 30.8 °F 23.0 °F 56% 29.94 in 10.0 mi NNW 9.2 mph - N/A   Overcast
9:54 AM 39.9 °F 34.5 °F 24.1 °F 53% 29.96 in 10.0 mi North 8.1 mph 20.7 mph N/A   Overcast
10:54 AM 41.0 °F 35.2 °F 25.0 °F 53% 29.96 in 10.0 mi North 9.2 mph - N/A   Overcast
11:54 AM 45.0 °F 40.6 °F 26.1 °F 48% 29.96 in 10.0 mi NW 8.1 mph 17.3 mph N/A   Mostly Cloudy
12:54 PM 45.0 °F 40.6 °F 27.0 °F 49% 29.96 in 10.0 mi NNE 8.1 mph - N/A   Overcast
1:54 PM 45.0 °F 40.6 °F 28.0 °F 52% 29.98 in 10.0 mi ENE 8.1 mph - N/A   Overcast
2:54 PM 43.0 °F 37.7 °F 30.0 °F 60% 30.00 in 10.0 mi East 9.2 mph - N/A   Overcast
3:54 PM 45.0 °F 42.6 °F 30.9 °F 58% 30.01 in 10.0 mi East 4.6 mph - N/A   Partly Cloudy
4:54 PM 44.1 °F 41.5 °F 32.0 °F 63% 30.04 in 10.0 mi ENE 4.6 mph - N/A   Scattered Clouds
5:54 PM 39.9 °F - 30.9 °F 70% 30.05 in 10.0 mi Calm Calm - N/A   Partly Cloudy
6:54 PM 37.9 °F - 30.9 °F 76% 30.06 in 10.0 mi Calm Calm - N/A   Clear
7:54 PM 34.0 °F - 28.9 °F 82% 30.07 in 10.0 mi Calm Calm - N/A   Scattered Clouds
8:54 PM 37.0 °F - 30.9 °F 79% 30.07 in 10.0 mi Calm Calm - N/A   Overcast
9:54 PM 34.0 °F 29.8 °F 28.9 °F 82% 30.06 in 10.0 mi NNE 4.6 mph - N/A   Mostly Cloudy
10:28 PM 37.4 °F 31.4 °F 30.2 °F 75% 30.07 in 10.0 mi North 8.1 mph - N/A   Overcast
10:54 PM 37.9 °F 33.5 °F 32.0 °F 79% 30.08 in 10.0 mi NNE 5.8 mph - N/A   Overcast
11:05 PM 37.4 °F 32.1 °F 33.8 °F 87% 30.08 in 10.0 mi NNE 6.9 mph - N/A   Overcast
11:29 PM 37.4 °F 33.8 °F 33.8 °F 87% 30.09 in 10.0 mi North 4.6 mph - N/A   Overcast
11:54 PM 37.0 °F 32.4 °F 32.0 °F 82% 30.09 in 10.0 mi North 5.8 mph - N/A   Overcast